| time (UTC) | temp C | wind direction | speed KPH | gust KPH | rain 1hr cm | rain 24hr cm | rain mn cm | humidity % | barometer mb |
| 20260507004312 | 28 | 237 | 0.0 | 4.8 | 0.00 | 0.00 | 0.00 | 100 | 1011.3 |
| 20260507003812 | 28 | 295 | 4.8 | 8.0 | 0.00 | 0.00 | 0.00 | 100 | 1011.1 |
| 20260507003312 | 28 | 347 | 0.0 | 8.0 | 0.00 | 0.00 | 0.00 | 100 | 1012.4 |
| 20260507002812 | 28 | 357 | 3.2 | 8.0 | 0.00 | 0.00 | 0.00 | 100 | 1013.5 |
| 20260507002312 | 28 | 326 | 0.0 | 8.0 | 0.00 | 0.00 | 0.00 | 100 | 1013.5 |
| 20260507001812 | 28 | 312 | 1.6 | 6.4 | 0.00 | 0.00 | 0.00 | 100 | 1013.8 |
| 20260507001312 | 28 | 274 | 0.0 | 11.3 | 0.00 | 0.00 | 0.00 | 100 | 1013.8 |
| 20260507000812 | 28 | 305 | 0.0 | 6.4 | 0.00 | 0.00 | 0.00 | 100 | 1013.7 |
| 20260507000314 | 28 | 309 | 0.0 | 8.0 | 0.00 | 0.00 | 0.00 | 100 | 1013.6 |
| 20260506235812 | 28 | 4 | 4.8 | 8.0 | 0.00 | 0.00 | 0.00 | 100 | 1013.5 |
| 20260506235312 | 28 | 350 | 0.0 | 9.7 | 0.00 | 0.00 | 0.00 | 100 | 1013.7 |
| 20260506234812 | 28 | 350 | 6.4 | 9.7 | 0.00 | 0.00 | 0.00 | 100 | 1013.6 |
| 20260506234312 | 28 | 330 | 4.8 | 9.7 | 0.00 | 0.00 | 0.00 | 100 | 1013.4 |
| 20260506233812 | 28 | 258 | 0.0 | 6.4 | 0.00 | 0.00 | 0.00 | 100 | 1013.8 |
| 20260506233312 | 28 | 315 | 3.2 | 9.7 | 0.00 | 0.00 | 0.00 | 100 | 1013.7 |
| 20260506232812 | 29 | 344 | 6.4 | 12.9 | 0.00 | 0.00 | 0.00 | 100 | 1013.8 |
| 20260506232312 | 29 | 316 | 6.4 | 11.3 | 0.00 | 0.00 | 0.00 | 100 | 1013.7 |
| 20260506231812 | 29 | 274 | 8.0 | 8.0 | 0.00 | 0.00 | 0.00 | 100 | 1013.7 |
| 20260506231312 | 29 | 28 | 1.6 | 11.3 | 0.00 | 0.00 | 0.00 | 100 | 1013.8 |
| 20260506230812 | 30 | 277 | 3.2 | 12.9 | 0.00 | 0.00 | 0.00 | 100 | 1013.7 |
| 20260506230312 | 30 | 331 | 12.9 | 12.9 | 0.00 | 0.00 | 0.00 | 100 | 1013.7 |
| 20260506225812 | 30 | 296 | 3.2 | 6.4 | 0.00 | 0.00 | 0.00 | 100 | 1013.6 |
| 20260506225312 | 30 | 225 | 0.0 | 11.3 | 0.00 | 0.00 | 0.00 | 100 | 1013.6 |
| 20260506224812 | 30 | 355 | 3.2 | 14.5 | 0.00 | 0.00 | 0.00 | 100 | 1013.6 |
| 20260506224312 | 30 | 98 | 1.6 | 6.4 | 0.00 | 0.00 | 0.00 | 100 | 1013.6 |
| 20260506223812 | 30 | 352 | 3.2 | 12.9 | 0.00 | 0.00 | 0.00 | 100 | 1013.6 |
| 20260506223312 | 30 | 281 | 9.7 | 14.5 | 0.00 | 0.00 | 0.00 | 100 | 1013.4 |
| 20260506222812 | 30 | 299 | 1.6 | 8.0 | 0.00 | 0.00 | 0.00 | 100 | 1013.5 |
| 20260506222312 | 30 | 282 | 1.6 | 12.9 | 0.00 | 0.00 | 0.00 | 100 | 1013.3 |
| 20260506221812 | 30 | 288 | 0.0 | 9.7 | 0.00 | 0.00 | 0.00 | 100 | 1013.6 |
| 20260506221312 | 30 | 264 | 6.4 | 11.3 | 0.00 | 0.00 | 0.00 | 100 | 1013.7 |
| 20260506220812 | 30 | 300 | 4.8 | 9.7 | 0.00 | 0.00 | 0.00 | 100 | 1013.8 |
| 20260506220312 | 30 | 326 | 4.8 | 14.5 | 0.00 | 0.00 | 0.00 | 100 | 1013.7 |
| 20260506215812 | 30 | 274 | 3.2 | 12.9 | 0.00 | 0.00 | 0.00 | 100 | 1013.8 |
| 20260506215312 | 30 | 326 | 8.0 | 12.9 | 0.00 | 0.00 | 0.00 | 100 | 1013.8 |
| 20260506214812 | 30 | 275 | 1.6 | 12.9 | 0.00 | 0.00 | 0.00 | 100 | 1013.8 |
| 20260506214312 | 30 | 291 | 9.7 | 14.5 | 0.00 | 0.00 | 0.00 | 100 | 1013.8 |
| 20260506213812 | 30 | 292 | 4.8 | 12.9 | 0.00 | 0.00 | 0.00 | 100 | 1013.8 |
| 20260506213312 | 30 | 307 | 8.0 | 12.9 | 0.00 | 0.00 | 0.00 | 100 | 1013.8 |
| 20260506212812 | 30 | 354 | 3.2 | 12.9 | 0.00 | 0.00 | 0.00 | 100 | 1013.9 |
| 20260506212312 | 30 | 340 | 8.0 | 14.5 | 0.00 | 0.00 | 0.00 | 100 | 1013.9 |
| 20260506211812 | 30 | 337 | 8.0 | 14.5 | 0.00 | 0.00 | 0.00 | 100 | 1013.9 |
| 20260506211312 | 30 | 1 | 4.8 | 17.7 | 0.00 | 0.00 | 0.00 | 100 | 1013.9 |
| 20260506210812 | 31 | 230 | 1.6 | 12.9 | 0.00 | 0.00 | 0.00 | 100 | 1013.8 |
| 20260506210312 | 31 | 15 | 4.8 | 12.9 | 0.00 | 0.00 | 0.00 | 100 | 1013.8 |
| 20260506205812 | 31 | 320 | 3.2 | 11.3 | 0.00 | 0.00 | 0.00 | 100 | 1013.7 |
| 20260506205312 | 31 | 300 | 3.2 | 12.9 | 0.00 | 0.00 | 0.00 | 100 | 1013.7 |
| 20260506204812 | 31 | 305 | 8.0 | 9.7 | 0.00 | 0.00 | 0.00 | 100 | 1013.7 |
| 20260506204312 | 31 | 250 | 4.8 | 16.1 | 0.00 | 0.00 | 0.00 | 100 | 1013.7 |
| 20260506203812 | 31 | 123 | 3.2 | 12.9 | 0.00 | 0.00 | 0.00 | 100 | 1013.7 |
| 20260506203312 | 31 | 310 | 4.8 | 11.3 | 0.00 | 0.00 | 0.00 | 100 | 1013.6 |
| 20260506202812 | 31 | 279 | 1.6 | 8.0 | 0.00 | 0.00 | 0.00 | 100 | 1013.6 |
| 20260506202312 | 31 | 300 | 1.6 | 9.7 | 0.00 | 0.00 | 0.00 | 100 | 1013.7 |
| 20260506201812 | 31 | 272 | 0.0 | 9.7 | 0.00 | 0.00 | 0.00 | 100 | 1013.7 |
| 20260506201312 | 31 | 319 | 3.2 | 8.0 | 0.00 | 0.00 | 0.00 | 100 | 1013.8 |
| 20260506200812 | 31 | 312 | 0.0 | 11.3 | 0.00 | 0.00 | 0.00 | 100 | 1013.8 |
| 20260506200312 | 31 | 213 | 4.8 | 14.5 | 0.00 | 0.00 | 0.00 | 100 | 1013.8 |
| 20260506195812 | 31 | 181 | 0.0 | 12.9 | 0.00 | 0.00 | 0.00 | 100 | 1013.9 |
| 20260506195312 | 31 | 203 | 4.8 | 16.1 | 0.00 | 0.00 | 0.00 | 100 | 1013.8 |
| 20260506194812 | 31 | 175 | 3.2 | 9.7 | 0.00 | 0.00 | 0.00 | 100 | 1013.8 |
| 20260506194312 | 32 | 310 | 3.2 | 12.9 | 0.00 | 0.00 | 0.00 | 100 | 1013.8 |
| 20260506193812 | 32 | 292 | 1.6 | 9.7 | 0.00 | 0.00 | 0.00 | 100 | 1013.9 |
| 20260506193312 | 32 | 312 | 3.2 | 14.5 | 0.00 | 0.00 | 0.00 | 100 | 1013.8 |
| 20260506192812 | 32 | 272 | 1.6 | 14.5 | 0.00 | 0.00 | 0.00 | 100 | 1013.9 |
| 20260506192312 | 32 | 229 | 0.0 | 12.9 | 0.00 | 0.00 | 0.00 | 100 | 1013.8 |
| 20260506191812 | 32 | 210 | 0.0 | 14.5 | 0.00 | 0.00 | 0.00 | 100 | 1013.7 |
| 20260506191312 | 31 | 230 | 8.0 | 17.7 | 0.00 | 0.00 | 0.00 | 100 | 1014.0 |
| 20260506190812 | 31 | 194 | 6.4 | 8.0 | 0.00 | 0.00 | 0.00 | 100 | 1014.0 |
| 20260506190312 | 31 | 309 | 0.0 | 14.5 | 0.00 | 0.00 | 0.00 | 100 | 1014.1 |
| 20260506185812 | 31 | 302 | 1.6 | 16.1 | 0.00 | 0.00 | 0.00 | 100 | 1014.2 |
| 20260506185312 | 31 | 274 | 6.4 | 14.5 | 0.00 | 0.00 | 0.00 | 100 | 1014.4 |
| 20260506184812 | 32 | 281 | 4.8 | 14.5 | 0.00 | 0.00 | 0.00 | 100 | 1014.4 |
| 20260506184312 | 32 | 208 | 0.0 | 19.3 | 0.00 | 0.00 | 0.00 | 100 | 1014.5 |
| 20260506183812 | 32 | 300 | 4.8 | 14.5 | 0.00 | 0.00 | 0.00 | 100 | 1014.6 |
| 20260506183312 | 32 | 109 | 0.0 | 8.0 | 0.00 | 0.00 | 0.00 | 100 | 1014.6 |
| 20260506182812 | 32 | 253 | 3.2 | 11.3 | 0.00 | 0.00 | 0.00 | 100 | 1014.6 |
| 20260506182312 | 32 | 241 | 3.2 | 12.9 | 0.00 | 0.00 | 0.00 | 100 | 1014.6 |
| 20260506181812 | 32 | 195 | 3.2 | 12.9 | 0.00 | 0.00 | 0.00 | 100 | 1014.6 |
| 20260506181312 | 32 | 258 | 3.2 | 12.9 | 0.00 | 0.00 | 0.00 | 100 | 1014.6 |
| 20260506180812 | 32 | 255 | 4.8 | 16.1 | 0.00 | 0.00 | 0.00 | 100 | 1014.6 |
| 20260506180312 | 32 | 285 | 3.2 | 9.7 | 0.00 | 0.00 | 0.00 | 100 | 1014.6 |
| 20260506175812 | 32 | 250 | 6.4 | 11.3 | 0.00 | 0.00 | 0.00 | 100 | 1014.6 |
| 20260506175312 | 32 | 236 | 1.6 | 11.3 | 0.00 | 0.00 | 0.00 | 100 | 1014.7 |
| 20260506174812 | 32 | 217 | 4.8 | 11.3 | 0.00 | 0.00 | 0.00 | 100 | 1014.7 |
| 20260506174312 | 32 | 289 | 6.4 | 12.9 | 0.00 | 0.00 | 0.00 | 100 | 1014.7 |
| 20260506173812 | 32 | 312 | 1.6 | 14.5 | 0.00 | 0.00 | 0.00 | 100 | 1014.7 |
| 20260506173312 | 32 | 309 | 3.2 | 9.7 | 0.00 | 0.00 | 0.00 | 100 | 1014.7 |
| 20260506172812 | 32 | 201 | 4.8 | 8.0 | 0.00 | 0.00 | 0.00 | 100 | 1014.8 |
| 20260506172312 | 32 | 125 | 1.6 | 9.7 | 0.00 | 0.00 | 0.00 | 100 | 1014.8 |
| 20260506171812 | 32 | 212 | 3.2 | 14.5 | 0.00 | 0.00 | 0.00 | 100 | 1014.9 |
| 20260506171312 | 32 | 261 | 3.2 | 12.9 | 0.00 | 0.00 | 0.00 | 100 | 1015.0 |
| 20260506170812 | 32 | 270 | 8.0 | 8.0 | 0.00 | 0.00 | 0.00 | 100 | 1015.1 |
| 20260506170312 | 32 | 184 | 3.2 | 11.3 | 0.00 | 0.00 | 0.00 | 100 | 1015.1 |
| 20260506165812 | 32 | 274 | 4.8 | 11.3 | 0.00 | 0.00 | 0.00 | 100 | 1015.2 |
| 20260506165312 | 32 | 181 | 3.2 | 11.3 | 0.00 | 0.00 | 0.00 | 100 | 1015.2 |
| 20260506164812 | 32 | 254 | 6.4 | 14.5 | 0.00 | 0.00 | 0.00 | 100 | 1015.2 |
| 20260506164312 | 32 | 261 | 1.6 | 6.4 | 0.00 | 0.00 | 0.00 | 100 | 1015.2 |
| 20260506163812 | 32 | 312 | 4.8 | 11.3 | 0.00 | 0.00 | 0.00 | 100 | 1015.1 |
| 20260506163312 | 32 | 247 | 0.0 | 8.0 | 0.00 | 0.00 | 0.00 | 100 | 1015.3 |
| 20260506162812 | 32 | 295 | 6.4 | 11.3 | 0.00 | 0.00 | 0.00 | 100 | 1015.3 |
| 20260506162312 | 31 | 164 | 3.2 | 8.0 | 0.00 | 0.00 | 0.00 | 100 | 1015.4 |
| 20260506161812 | 31 | 279 | 3.2 | 8.0 | 0.00 | 0.00 | 0.00 | 100 | 1015.3 |
| 20260506161312 | 31 | 272 | 1.6 | 9.7 | 0.00 | 0.00 | 0.00 | 100 | 1015.4 |
| 20260506160812 | 32 | 208 | 0.0 | 9.7 | 0.00 | 0.00 | 0.00 | 100 | 1015.4 |
| 20260506160312 | 32 | 247 | 6.4 | 9.7 | 0.00 | 0.00 | 0.00 | 100 | 1015.4 |
| 20260506155812 | 32 | 240 | 1.6 | 11.3 | 0.00 | 0.00 | 0.00 | 100 | 1015.5 |
| 20260506155312 | 32 | 234 | 4.8 | 14.5 | 0.00 | 0.00 | 0.00 | 100 | 1015.3 |
| 20260506154812 | 32 | 172 | 9.7 | 17.7 | 0.00 | 0.00 | 0.00 | 100 | 1015.3 |
| 20260506154312 | 31 | 233 | 1.6 | 14.5 | 0.00 | 0.00 | 0.00 | 100 | 1015.2 |
| 20260506153812 | 31 | 140 | 1.6 | 16.1 | 0.00 | 0.00 | 0.00 | 100 | 1015.0 |
| 20260506153313 | 31 | 205 | 6.4 | 14.5 | 0.00 | 0.00 | 0.00 | 100 | 1015.2 |
| 20260506152813 | 31 | 157 | 3.2 | 11.3 | 0.00 | 0.00 | 0.00 | 100 | 1015.2 |
| 20260506152313 | 31 | 178 | 8.0 | 12.9 | 0.00 | 0.00 | 0.00 | 100 | 1015.3 |
| 20260506151813 | 31 | 205 | 1.6 | 8.0 | 0.00 | 0.00 | 0.00 | 100 | 1015.2 |
| 20260506151313 | 30 | 149 | 8.0 | 14.5 | 0.00 | 0.00 | 0.00 | 100 | 1015.1 |
| 20260506150813 | 30 | 206 | 4.8 | 11.3 | 0.00 | 0.00 | 0.00 | 100 | 1015.2 |
| 20260506150313 | 30 | 215 | 6.4 | 11.3 | 0.00 | 0.00 | 0.00 | 100 | 1015.1 |
| 20260506145813 | 30 | 230 | 6.4 | 12.9 | 0.00 | 0.00 | 0.00 | 100 | 1015.1 |
| 20260506145313 | 30 | 178 | 9.7 | 12.9 | 0.00 | 0.00 | 0.00 | 100 | 1015.2 |
| 20260506144813 | 30 | 222 | 6.4 | 16.1 | 0.00 | 0.00 | 0.00 | 100 | 1015.2 |
| 20260506144313 | 30 | 175 | 3.2 | 14.5 | 0.00 | 0.00 | 0.00 | 100 | 1015.0 |
| 20260506143813 | 30 | 222 | 6.4 | 12.9 | 0.00 | 0.00 | 0.00 | 100 | 1015.0 |
| 20260506143313 | 30 | 233 | 4.8 | 16.1 | 0.00 | 0.00 | 0.00 | 100 | 1015.1 |
| 20260506142813 | 30 | 196 | 3.2 | 12.9 | 0.00 | 0.00 | 0.00 | 100 | 1015.3 |
| 20260506142313 | 30 | 205 | 3.2 | 12.9 | 0.00 | 0.00 | 0.00 | 100 | 1015.2 |
| 20260506141813 | 29 | 244 | 4.8 | 17.7 | 0.00 | 0.00 | 0.00 | 100 | 1015.2 |
| 20260506141313 | 29 | 260 | 3.2 | 17.7 | 0.00 | 0.00 | 0.00 | 100 | 1015.2 |
| 20260506140813 | 29 | 184 | 6.4 | 16.1 | 0.00 | 0.00 | 0.00 | 100 | 1015.2 |
| 20260506140313 | 29 | 177 | 1.6 | 12.9 | 0.00 | 0.00 | 0.00 | 100 | 1015.2 |
| 20260506135813 | 28 | 206 | 8.0 | 16.1 | 0.00 | 0.00 | 0.00 | 100 | 1015.2 |
| 20260506135313 | 28 | 198 | 8.0 | 14.5 | 0.00 | 0.00 | 0.00 | 100 | 1015.1 |
| 20260506134813 | 28 | 216 | 3.2 | 17.7 | 0.00 | 0.00 | 0.00 | 100 | 1015.1 |
| 20260506134313 | 28 | 230 | 8.0 | 17.7 | 0.00 | 0.00 | 0.00 | 100 | 1015.1 |
| 20260506133813 | 28 | 203 | 3.2 | 16.1 | 0.00 | 0.00 | 0.00 | 100 | 1015.1 |
| 20260506133313 | 28 | 203 | 6.4 | 12.9 | 0.00 | 0.00 | 0.00 | 100 | 1015.0 |
| 20260506132813 | 28 | 217 | 0.0 | 12.9 | 0.00 | 0.00 | 0.00 | 100 | 1014.9 |
| 20260506132313 | 28 | 219 | 8.0 | 9.7 | 0.00 | 0.00 | 0.00 | 100 | 1015.0 |
| 20260506131813 | 28 | 185 | 1.6 | 11.3 | 0.00 | 0.00 | 0.00 | 100 | 1014.9 |
| 20260506131313 | 28 | 174 | 4.8 | 9.7 | 0.00 | 0.00 | 0.00 | 100 | 1014.9 |
| 20260506130813 | 27 | 202 | 4.8 | 16.1 | 0.00 | 0.00 | 0.00 | 100 | 1014.9 |
| 20260506130313 | 27 | 225 | 4.8 | 12.9 | 0.00 | 0.00 | 0.00 | 100 | 1014.9 |
| 20260506125813 | 27 | 222 | 1.6 | 12.9 | 0.00 | 0.00 | 0.00 | 100 | 1014.8 |
| 20260506125313 | 27 | 175 | 11.3 | 12.9 | 0.00 | 0.00 | 0.00 | 100 | 1015.0 |
| 20260506124813 | 27 | 202 | 1.6 | 6.4 | 0.00 | 0.00 | 0.00 | 100 | 1014.9 |
| 20260506124313 | 27 | 154 | 0.0 | 4.8 | 0.00 | 0.00 | 0.00 | 100 | 1014.8 |
| 20260506123813 | 27 | 168 | 3.2 | 6.4 | 0.00 | 0.00 | 0.00 | 100 | 1014.6 |
| 20260506123313 | 26 | 232 | 3.2 | 9.7 | 0.00 | 0.00 | 0.00 | 100 | 1014.9 |
| 20260506122813 | 26 | 203 | 0.0 | 6.4 | 0.00 | 0.00 | 0.00 | 100 | 1014.8 |
| 20260506122313 | 26 | 178 | 0.0 | 6.4 | 0.00 | 0.00 | 0.00 | 100 | 1014.7 |
| 20260506121813 | 26 | 194 | 3.2 | 4.8 | 0.00 | 0.00 | 0.00 | 100 | 1014.7 |
| 20260506121313 | 26 | 156 | 0.0 | 3.2 | 0.00 | 0.00 | 0.00 | 100 | 1014.7 |
| 20260506120849 | 26 | 195 | 0.0 | 4.8 | 0.00 | 0.00 | 0.00 | 100 | 1014.6 |
| 20260506120813 | 26 | 195 | 0.0 | 4.8 | 0.00 | 0.00 | 0.00 | 100 | 1014.6 |
| 20260506120313 | 25 | 220 | 0.0 | 4.8 | 0.00 | 0.00 | 0.00 | 100 | 1014.6 |
| 20260506115813 | 25 | 175 | 0.0 | 3.2 | 0.00 | 0.00 | 0.00 | 100 | 1014.5 |
| 20260506115313 | 25 | 202 | 1.6 | 1.6 | 0.00 | 0.00 | 0.00 | 100 | 1014.4 |
| 20260506114813 | 25 | 164 | 0.0 | 0.0 | 0.00 | 0.00 | 0.00 | 100 | 1014.3 |
| 20260506114313 | 25 | 164 | 0.0 | 0.0 | 0.00 | 0.00 | 0.00 | 100 | 1014.2 |
| 20260506113813 | 25 | 164 | 0.0 | 0.0 | 0.00 | 0.00 | 0.00 | 100 | 1014.2 |
| 20260506113313 | 25 | 164 | 0.0 | 0.0 | 0.00 | 0.00 | 0.00 | 100 | 1014.2 |
| 20260506112813 | 25 | 164 | 0.0 | 0.0 | 0.00 | 0.00 | 0.00 | 100 | 1014.1 |
| 20260506112313 | 25 | 164 | 0.0 | 0.0 | 0.00 | 0.00 | 0.00 | 100 | 1014.1 |
| 20260506111813 | 25 | 164 | 0.0 | 0.0 | 0.00 | 0.00 | 0.00 | 100 | 1014.1 |
| 20260506111313 | 25 | 164 | 0.0 | 0.0 | 0.00 | 0.00 | 0.00 | 100 | 1014.1 |
| 20260506110813 | 25 | 164 | 0.0 | 0.0 | 0.00 | 0.00 | 0.00 | 100 | 1014.0 |
| 20260506110313 | 25 | 164 | 0.0 | 0.0 | 0.00 | 0.00 | 0.00 | 100 | 1014.0 |
| 20260506105813 | 25 | 164 | 0.0 | 0.0 | 0.00 | 0.00 | 0.00 | 100 | 1013.9 |
| 20260506105313 | 25 | 164 | 0.0 | 0.0 | 0.00 | 0.00 | 0.00 | 100 | 1013.9 |
| 20260506104813 | 25 | 164 | 0.0 | 0.0 | 0.00 | 0.00 | 0.00 | 100 | 1013.8 |
| 20260506104313 | 25 | 164 | 0.0 | 0.0 | 0.00 | 0.00 | 0.00 | 100 | 1013.8 |
| 20260506103813 | 25 | 164 | 0.0 | 0.0 | 0.00 | 0.00 | 0.00 | 100 | 1013.7 |
| 20260506103313 | 25 | 164 | 0.0 | 0.0 | 0.00 | 0.00 | 0.00 | 100 | 1013.7 |
| 20260506102813 | 25 | 164 | 0.0 | 0.0 | 0.00 | 0.00 | 0.00 | 100 | 1013.7 |
| 20260506102313 | 25 | 164 | 0.0 | 0.0 | 0.00 | 0.00 | 0.00 | 100 | 1013.5 |
| 20260506101813 | 25 | 164 | 0.0 | 0.0 | 0.00 | 0.00 | 0.00 | 100 | 1013.7 |
| 20260506101313 | 25 | 164 | 0.0 | 0.0 | 0.00 | 0.00 | 0.00 | 100 | 1013.7 |
| 20260506100813 | 25 | 164 | 0.0 | 0.0 | 0.00 | 0.00 | 0.00 | 100 | 1013.7 |
| 20260506100313 | 25 | 164 | 0.0 | 0.0 | 0.00 | 0.00 | 0.00 | 100 | 1013.8 |
| 20260506095813 | 25 | 164 | 0.0 | 0.0 | 0.00 | 0.00 | 0.00 | 100 | 1013.8 |
| 20260506095313 | 25 | 164 | 0.0 | 0.0 | 0.00 | 0.00 | 0.00 | 100 | 1013.8 |
| 20260506094813 | 25 | 164 | 0.0 | 0.0 | 0.00 | 0.00 | 0.00 | 100 | 1013.8 |
| 20260506094313 | 25 | 164 | 0.0 | 0.0 | 0.00 | 0.00 | 0.00 | 100 | 1013.8 |
| 20260506093813 | 25 | 164 | 0.0 | 0.0 | 0.00 | 0.00 | 0.00 | 100 | 1013.6 |
| 20260506093313 | 25 | 164 | 0.0 | 0.0 | 0.00 | 0.00 | 0.00 | 100 | 1013.5 |
| 20260506092813 | 25 | 164 | 0.0 | 0.0 | 0.00 | 0.00 | 0.00 | 100 | 1013.4 |
| 20260506092313 | 25 | 164 | 0.0 | 0.0 | 0.00 | 0.00 | 0.00 | 100 | 1013.6 |
| 20260506091813 | 25 | 164 | 0.0 | 0.0 | 0.00 | 0.00 | 0.00 | 100 | 1013.5 |
| 20260506091313 | 25 | 164 | 0.0 | 0.0 | 0.00 | 0.00 | 0.00 | 100 | 1013.5 |
| 20260506090907 | 25 | 164 | 0.0 | 1.6 | 0.00 | 0.00 | 0.00 | 100 | 1013.5 |
| 20260506090813 | 25 | 164 | 0.0 | 1.6 | 0.00 | 0.00 | 0.00 | 100 | 1013.5 |
| 20260506090313 | 25 | 171 | 0.0 | 1.6 | 0.00 | 0.00 | 0.00 | 100 | 1013.5 |
| 20260506085813 | 25 | 170 | 1.6 | 1.6 | 0.00 | 0.00 | 0.00 | 100 | 1013.5 |
| 20260506085313 | 25 | 147 | 0.0 | 1.6 | 0.00 | 0.00 | 0.00 | 100 | 1013.4 |
| 20260506084813 | 25 | 171 | 0.0 | 4.8 | 0.00 | 0.00 | 0.00 | 100 | 1013.4 |
| 20260506084313 | 25 | 206 | 0.0 | 3.2 | 0.00 | 0.00 | 0.00 | 100 | 1013.3 |
| 20260506083813 | 25 | 215 | 1.6 | 1.6 | 0.00 | 0.00 | 0.00 | 100 | 1013.4 |
| 20260506083424 | 25 | 157 | 0.0 | 0.0 | 0.00 | 0.00 | 0.00 | 100 | 1013.4 |
| 20260506083313 | 25 | 192 | 0.0 | 4.8 | 0.00 | 0.00 | 0.00 | 100 | 1013.4 |
| 20260506082813 | 25 | 157 | 0.0 | 0.0 | 0.00 | 0.00 | 0.00 | 100 | 1013.4 |
| 20260506082353 | 25 | 157 | 0.0 | 0.0 | 0.00 | 0.00 | 0.00 | 100 | 1011.0 |
| 20260506082313 | 25 | 157 | 0.0 | 0.0 | 0.00 | 0.00 | 0.00 | 100 | 1011.0 |
| 20260506081813 | 25 | 157 | 0.0 | 0.0 | 0.00 | 0.00 | 0.00 | 100 | 1010.9 |
| 20260506081559 | 25 | 175 | 0.0 | 0.0 | 0.00 | 0.00 | 0.00 | 100 | 1011.4 |
| 20260506081313 | 25 | 157 | 0.0 | 0.0 | 0.00 | 0.00 | 0.00 | 100 | 1010.9 |
| 20260506080813 | 25 | 175 | 0.0 | 0.0 | 0.00 | 0.00 | 0.00 | 100 | 1011.4 |
| 20260506080313 | 25 | 175 | 0.0 | 0.0 | 0.00 | 0.00 | 0.00 | 100 | 1010.9 |
| 20260506073313 | 25 | 153 | 0.0 | 0.0 | 0.00 | 0.00 | 0.00 | 100 | 1013.5 |
| 20260506073136 | 25 | 188 | 0.0 | 0.0 | 0.00 | 0.00 | 0.00 | 100 | 1013.6 |
| 20260506072813 | 25 | 153 | 0.0 | 0.0 | 0.00 | 0.00 | 0.00 | 100 | 1013.7 |
| 20260506072313 | 25 | 153 | 0.0 | 0.0 | 0.00 | 0.00 | 0.00 | 100 | 1013.7 |
| 20260506071813 | 25 | 188 | 0.0 | 0.0 | 0.00 | 0.00 | 0.00 | 100 | 1013.6 |
| 20260506071313 | 25 | 188 | 0.0 | 0.0 | 0.00 | 0.00 | 0.00 | 100 | 1013.5 |
| 20260506070813 | 25 | 188 | 0.0 | 0.0 | 0.00 | 0.00 | 0.00 | 100 | 1013.7 |
| 20260506070313 | 25 | 188 | 0.0 | 0.0 | 0.00 | 0.00 | 0.00 | 100 | 1014.0 |
| 20260506062313 | 25 | 188 | 0.0 | 0.0 | 0.00 | 0.00 | 0.00 | 100 | 1014.1 |
| 20260506061813 | 25 | 188 | 0.0 | 0.0 | 0.00 | 0.00 | 0.00 | 100 | 1014.1 |
| 20260506061314 | 25 | 188 | 0.0 | 1.6 | 0.00 | 0.00 | 0.00 | 100 | 1014.2 |
| 20260506060813 | 25 | 122 | 0.0 | 0.0 | 0.00 | 0.00 | 0.00 | 100 | 1014.3 |
| 20260506060644 | 25 | 122 | 0.0 | 0.0 | 0.00 | 0.00 | 0.00 | 100 | 1014.3 |
| 20260506060313 | 25 | 122 | 0.0 | 0.0 | 0.00 | 0.00 | 0.00 | 100 | 1014.3 |
| 20260506051313 | 26 | 168 | 0.0 | 0.0 | 0.00 | 0.00 | 0.00 | 100 | 1014.6 |
| 20260506050813 | 26 | 168 | 0.0 | 0.0 | 0.00 | 0.00 | 0.00 | 100 | 1014.5 |
| 20260506050313 | 26 | 168 | 0.0 | 0.0 | 0.00 | 0.00 | 0.00 | 100 | 1014.5 |
| 20260506044813 | 26 | 168 | 0.0 | 0.0 | 0.00 | 0.00 | 0.00 | 100 | 1014.7 |
| 20260506044313 | 26 | 168 | 0.0 | 0.0 | 0.00 | 0.00 | 0.00 | 100 | 1014.7 |
| 20260506043813 | 26 | 168 | 0.0 | 0.0 | 0.00 | 0.00 | 0.00 | 100 | 1014.7 |
| 20260506043715 | 26 | 168 | 0.0 | 0.0 | 0.00 | 0.00 | 0.00 | 100 | 1014.7 |
| 20260506043313 | 26 | 168 | 0.0 | 0.0 | 0.00 | 0.00 | 0.00 | 100 | 1014.7 |
| 20260506042813 | 26 | 168 | 0.0 | 0.0 | 0.00 | 0.00 | 0.00 | 100 | 1014.7 |
| 20260506042551 | 26 | 168 | 0.0 | 0.0 | 0.00 | 0.00 | 0.00 | 100 | 1015.1 |
| 20260506042314 | 26 | 168 | 0.0 | 0.0 | 0.00 | 0.00 | 0.00 | 100 | 1014.9 |
| 20260506042148 | 26 | 168 | 0.0 | 0.0 | 0.00 | 0.00 | 0.00 | 100 | 1015.0 |
| 20260506041839 | 26 | 168 | 0.0 | 0.0 | 0.00 | 0.00 | 0.00 | 100 | 1015.0 |
| 20260506041814 | 26 | 168 | 0.0 | 0.0 | 0.00 | 0.00 | 0.00 | 100 | 1015.1 |
| 20260506041314 | 26 | 168 | 0.0 | 0.0 | 0.00 | 0.00 | 0.00 | 100 | 1015.0 |
| 20260506040814 | 26 | 168 | 0.0 | 0.0 | 0.00 | 0.00 | 0.00 | 100 | 1014.9 |
| 20260506040314 | 26 | 168 | 0.0 | 0.0 | 0.00 | 0.00 | 0.00 | 100 | 1014.7 |
| 20260506035814 | 26 | 168 | 0.0 | 0.0 | 0.00 | 0.00 | 0.00 | 100 | 1014.6 |
| 20260506035314 | 26 | 168 | 0.0 | 0.0 | 0.00 | 0.00 | 0.00 | 100 | 1014.7 |
| 20260506034814 | 26 | 168 | 0.0 | 0.0 | 0.00 | 0.00 | 0.00 | 100 | 1014.6 |
| 20260506034314 | 26 | 168 | 0.0 | 0.0 | 0.00 | 0.00 | 0.00 | 100 | 1014.6 |
| 20260506033814 | 26 | 168 | 0.0 | 0.0 | 0.00 | 0.00 | 0.00 | 100 | 1014.5 |
| 20260506033314 | 26 | 168 | 0.0 | 0.0 | 0.00 | 0.00 | 0.00 | 100 | 1014.5 |
| 20260506032814 | 26 | 168 | 0.0 | 0.0 | 0.00 | 0.00 | 0.00 | 100 | 1014.6 |
| 20260506032314 | 26 | 168 | 0.0 | 0.0 | 0.00 | 0.00 | 0.00 | 100 | 1014.6 |
| 20260506031814 | 26 | 168 | 0.0 | 1.6 | 0.00 | 0.00 | 0.00 | 100 | 1014.6 |
| 20260506031314 | 26 | 175 | 0.0 | 3.2 | 0.00 | 0.00 | 0.00 | 100 | 1014.7 |
| 20260506030814 | 26 | 7 | 0.0 | 0.0 | 0.00 | 0.00 | 0.00 | 100 | 1014.6 |
| 20260506030337 | 26 | 7 | 0.0 | 0.0 | 0.00 | 0.00 | 0.00 | 100 | 1014.7 |
| 20260506030314 | 26 | 7 | 0.0 | 0.0 | 0.00 | 0.00 | 0.00 | 100 | 1014.7 |
| 20260506025814 | 26 | 7 | 0.0 | 0.0 | 0.00 | 0.00 | 0.00 | 100 | 1014.7 |
| 20260506025314 | 26 | 7 | 0.0 | 0.0 | 0.00 | 0.00 | 0.00 | 100 | 1014.6 |
| 20260506024814 | 26 | 7 | 0.0 | 0.0 | 0.00 | 0.00 | 0.00 | 100 | 1014.4 |
| 20260506024314 | 26 | 7 | 0.0 | 0.0 | 0.00 | 0.00 | 0.00 | 100 | 1014.3 |
| 20260506023814 | 26 | 7 | 0.0 | 0.0 | 0.00 | 0.00 | 0.00 | 100 | 1014.0 |
| 20260506023314 | 26 | 7 | 0.0 | 0.0 | 0.00 | 0.00 | 0.00 | 100 | 1013.9 |
| 20260506022814 | 26 | 7 | 0.0 | 0.0 | 0.00 | 0.00 | 0.00 | 100 | 1013.9 |
| 20260506022314 | 27 | 7 | 0.0 | 0.0 | 0.00 | 0.00 | 0.00 | 100 | 1013.9 |
| 20260506021814 | 26 | 7 | 0.0 | 0.0 | 0.00 | 0.00 | 0.00 | 100 | 1013.8 |
| 20260506021544 | 27 | 7 | 0.0 | 0.0 | 0.00 | 0.00 | 0.00 | 100 | 1013.8 |
| 20260506021314 | 27 | 7 | 0.0 | 0.0 | 0.00 | 0.00 | 0.00 | 100 | 1013.8 |
| 20260506020814 | 27 | 7 | 0.0 | 0.0 | 0.00 | 0.00 | 0.00 | 100 | 1013.8 |
| 20260506020335 | 27 | 7 | 0.0 | 0.0 | 0.00 | 0.00 | 0.00 | 100 | 1013.8 |
| 20260506020314 | 27 | 7 | 0.0 | 0.0 | 0.00 | 0.00 | 0.00 | 100 | 1013.8 |
| 20260506015814 | 27 | 7 | 0.0 | 0.0 | 0.00 | 0.00 | 0.00 | 100 | 1013.8 |
| 20260506015314 | 27 | 7 | 0.0 | 0.0 | 0.00 | 0.00 | 0.00 | 100 | 1013.7 |
| 20260506014814 | 27 | 7 | 0.0 | 0.0 | 0.00 | 0.00 | 0.00 | 100 | 1013.7 |
| 20260506014733 | 27 | 7 | 0.0 | 0.0 | 0.00 | 0.00 | 0.00 | 100 | 1013.6 |
| 20260506014314 | 27 | 7 | 0.0 | 0.0 | 0.00 | 0.00 | 0.00 | 100 | 1013.6 |
| 20260506013814 | 27 | 7 | 0.0 | 0.0 | 0.00 | 0.00 | 0.00 | 100 | 1013.5 |
| 20260506013314 | 27 | 7 | 0.0 | 0.0 | 0.00 | 0.00 | 0.00 | 100 | 1013.4 |
| 20260506012814 | 27 | 7 | 0.0 | 0.0 | 0.00 | 0.00 | 0.00 | 100 | 1013.4 |
| 20260506012314 | 27 | 7 | 0.0 | 0.0 | 0.00 | 0.00 | 0.00 | 100 | 1013.4 |
| 20260506011814 | 27 | 7 | 0.0 | 0.0 | 0.00 | 0.00 | 0.00 | 100 | 1013.3 |
| 20260506011314 | 27 | 7 | 0.0 | 0.0 | 0.00 | 0.00 | 0.00 | 100 | 1013.4 |
| 20260506010814 | 27 | 7 | 0.0 | 0.0 | 0.00 | 0.00 | 0.00 | 100 | 1013.3 |
| 20260506010314 | 27 | 7 | 0.0 | 0.0 | 0.00 | 0.00 | 0.00 | 100 | 1011.2 |
| 20260506005814 | 27 | 7 | 0.0 | 0.0 | 0.00 | 0.00 | 0.00 | 100 | 1011.1 |
| 20260506005314 | 27 | 7 | 0.0 | 0.0 | 0.00 | 0.00 | 0.00 | 100 | 1011.2 |
| 20260506004814 | 27 | 7 | 0.0 | 0.0 | 0.00 | 0.00 | 0.00 | 100 | 1011.2 |